Hourly Weather Roundup
Issued by NWS Central Illinois

Home | Current Version | Previous Version | Text Only | Print | Product List | Glossary On
Versions: 1 2 3 4 5 6 7 8 9 10 11 12 13 14 15 16 17 18 19 20 21 22 23 24 25 26 27 28 29 30 31 32 33 34 35 36 37 38 39 40 41 42 43 44 45 46 47 48 49 50
000
NZUS43 KILX 271810
HWRILX

AREA WEATHER ROUNDUP
NATIONAL WEATHER SERVICE, LINCOLN IL
1200 PM CST SAT DEC 27 2014


CITY           SKY/WX    TMP DP  RH WIND       PRES   REMARKS
BLOOMINGTON    CLOUDY    39  37  92 W18       30.08F WCI  29
6HR MIN TEMP:  39; 6HR MAX TEMP:  48; 6HR PCP: TRACE;

CHAMPAIGN      CLOUDY    49  47  93 SW17      30.07F FOG
6HR MIN TEMP:  46; 6HR MAX TEMP:  49; 6HR PCP: TRACE;

DECATUR        CLOUDY    44  41  89 W17       30.10F
6HR MIN TEMP:  44; 6HR MAX TEMP:  49; 6HR PCP:  0.01;

FLORA          PTSUNNY   49  48  96 SW8       30.12F
6HR MIN TEMP:  45; 6HR MAX TEMP:  49;

GALESBURG      CLOUDY    36  30  80 W15G25    30.05F WCI  26
JACKSONVILLE   CLOUDY    41  33  72 W14       30.12F WCI  34
6HR MIN TEMP:  41; 6HR MAX TEMP:  50;

LACON          CLOUDY    37  30  74 W9G22     30.08S WCI  31
6HR MIN TEMP:  37; 6HR MAX TEMP:  48;

LAWRENCEVILLE  CLOUDY    49  48  97 SW7       30.13F FOG
6HR MIN TEMP:  44; 6HR MAX TEMP:  49; 6HR PCP:  0.01;

LITCHFIELD     CLOUDY    42  38  85 W13       30.12F WCI  35
$$


CITY           SKY/WX    TMP DP  RH WIND       PRES   REMARKS
LINCOLN        CLOUDY    42  37  82 W9G20     30.11S
6HR MIN TEMP:  42; 6HR MAX TEMP:  49; 6HR PCP:  0.01;

MACOMB         CLOUDY    37  32  81 W14       30.10F WCI  28
MATTOON        CLOUDY    47  47 100 SW8       30.08F FOG
6HR MIN TEMP:  45; 6HR MAX TEMP:  47;

MT CARMEL AP   CLOUDY    50  46  87 CALM      30.13R
OLNEY-NOBLE AP CLOUDY    48  46  93 CALM      30.12F FOG
PARIS          CLOUDY    47  47 100 SW12      30.09F FOG
6HR MIN TEMP:  45; 6HR MAX TEMP:  47;

PEORIA         CLOUDY    40  31  70 MISG      30.10F
6HR MIN TEMP:  40; 6HR MAX TEMP:  50; 6HR PCP:  0.01;

PONTIAC        CLOUDY    40  38  91 W22       30.05F WCI  31
RANTOUL        CLOUDY    47  45  93 W17       30.06F
6HR MIN TEMP:  47; 6HR MAX TEMP:  49;

ROBINSON       CLOUDY    48  47  95 SW10      30.13F
6HR MIN TEMP:  44; 6HR MAX TEMP:  48;

SPRINGFIELD    CLOUDY    41  35  79 W18       30.12F WCI  32
6HR MIN TEMP:  41; 6HR MAX TEMP:  49; 6HR PCP:  0.01;

TAYLORVILLE    CLOUDY    41  37  87 W10G18    30.12F WCI  35
$$

...REGIONAL REPORTS...


CITY           SKY/WX    TMP DP  RH WIND       PRES   REMARKS
CHICAGO O`HARE CLOUDY    39  35  86 W24       29.97R WCI  28
KANKAKEE       CLOUDY    43  41  93 W23       30.03F WCI  34
MOLINE         CLOUDY    35  26  69 W16       30.06F WCI  25
MOUNT VERNON   CLOUDY    48  45  87 SW8       30.13F
PITTSFIELD     CLOUDY    40  32  72 W12       30.14F WCI  33
QUINCY         LGT RAIN  38  30  73 W15       30.16F WCI  29
ROCKFORD       CLOUDY    36  30  79 W16G26    30.00F WCI  26
$$


CITY           SKY/WX    TMP DP  RH WIND       PRES   REMARKS
BURLINGTON     CLOUDY    36  28  73 W8G20     30.08F WCI  30
CEDAR RAPIDS   CLOUDY    30  26  85 NW23      30.08F WCI  17
DES MOINES     CLOUDY    28  22  78 NW17      30.18F WCI  16
KIRKSVILLE     CLOUDY    33  28  81 W10       30.19R WCI  25
OTTUMWA        CLOUDY    31  24  75 NW15G22   30.14F WCI  20
ST LOUIS       CLOUDY    43  35  73 NW14G20   30.15F
$$


CITY           SKY/WX    TMP DP  RH WIND       PRES   REMARKS
TERRE HAUTE    CLOUDY    47  45  93 SW8       30.10F FOG
EVANSVILLE     CLOUDY    50  46  86 S7        30.13F
INDIANAPOLIS   CLOUDY    46  44  93 SW12      30.08F
LAFAYETTE      CLOUDY    45  45 100 SW9       30.05F FOG
MADISON        CLOUDY    36  31  82 VRB7G18   29.91F WCI  30
MILWAUKEE      CLOUDY    41  34  76 W17G35    29.89S WCI  32
$$




USA.gov is the U.S. government's official web portal to all federal, state and local government web resources and services.